Temperature
0 1 1 1 1 1 1 1 1 2 2 3 3 3 3 3 3 3 3 3 3 3 3 3 4 4 4 4 4 4 4 4 4 4 4 4 4 4 3 3 3 3 3 3
-0 1 1 1 1 1 1 1 1 1 2 2 3 3 3 3 3 3 3 3 3 3 3 3 3 3 3 3 3 3 3 3 3 3 3 3 3 3 3 3 3 3 3 2
-0 -0 0 0 0 0 0 0 1 1 2 2 2 2 2 2 3 2 2 2 2 2 2 3 3 3 3 3 3 3 2 2 2 3 2 2 2 2 2 2 2 2 2 2
-1 -1 -1 1 0 0 0 0 0 1 1 1 2 2 2 2 2 2 2 2 2 2 2 2 2 2 2 2 2 2 2 2 2 2 2 2 2 2 2 2 2 2 1 1
-2 -2 -1 0 0 -0 -0 0 -0 0 1 1 1 1 1 2 2 2 2 2 2 2 2 2 2 2 2 2 1 1 1 1 1 1 1 1 1 1 1 1 1 1 1 1
-2 -1 -1 1 0 0 0 -0 0 -0 -0 0 0 -1 0 2 2 2 2 2 2 2 1 1 1 1 1 1 1 1 1 1 0 0 0 0 1 1 1 0 0 0 0 0
-3 -2 -1 -1 -0 0 0 0 0 0 0 0 -1 -0 1 1 1 1 1 1 1 1 1 1 1 1 1 1 0 0 0 0 -0 -0 -0 -0 -0 -0 -0 -0 -0 -0 -0 -0
-3 -2 -1 -1 -1 -1 -0 0 0 0 0 0 0 0 1 1 1 0 0 0 0 0 0 0 0 0 0 0 -0 -0 -0 -0 -0 -0 -1 -1 -1 -1 -1 -1 -1 -1 -1 -1
-3 -1 -1 -1 -0 0 0 -0 -0 -0 -0 -0 -0 -0 0 0 0 -0 -0 -0 -0 -0 -0 -0 -0 -1 -1 -1 -1 -1 -1 -1 -1 -1 -1 -1 -1 -1 -1 -2 -2 -2 -2 -2
-3 -3 -2 -1 -0 -0 -0 -0 -0 -1 -1 -1 -1 -1 -0 -0 -1 -1 -1 -1 -1 -1 -1 -1 -1 -1 -1 -1 -2 -1 -1 -1 -1 -1 -1 -2 -2 -2 -2 -2 -2 -2 -2 -2
-3 -3 -2 -1 -1 -0 -1 -1 -1 -1 -1 -1 -1 -1 -1 -1 -1 -1 -1 -1 -1 -1 -1 -1 -1 -2 -2 -2 -2 -2 -2 -2 -2 -2 -2 -2 -2 -2 -2 -3 -3 -3 -3 -3
-3 -2 -3 -2 -1 -1 -1 -1 -2 -2 -1 -1 -1 -2 -2 -2 -2 -2 -2 -2 -2 -2 -2 -2 -2 -2 -2 -2 -2 -2 -2 -2 -2 -3 -3 -3 -3 -3 -3 -3 -3 -3 -3 -3
-1 -1 -1 -1 -1 -2 -2 -2 -2 -2 -2 -2 -2 -2 -2 -3 -3 -3 -3 -3 -3 -3 -3 -3 -3 -3 -3 -3 -3 -3 -3 -3 -3 -3 -3 -3 -3 -4 -4 -4 -4 -4 -4 -4
-1 -2 -2 -2 -2 -2 -2 -2 -2 -3 -3 -3 -3 -3 -3 -3 -3 -3 -3 -3 -3 -3 -3 -3 -3 -3 -3 -3 -3 -3 -3 -3 -4 -4 -4 -4 -4 -4 -4 -4 -4 -4 -4 -4
-2 -2 -2 -2 -3 -3 -3 -3 -3 -3 -3 -3 -3 -3 -3 -3 -3 -3 -4 -4 -4 -4 -4 -4 -4 -3 -3 -4 -4 -4 -4 -4 -4 -4 -4 -4 -4 -4 -4 -4 -4 -4 -4 -4
-2 -2 -3 -3 -3 -3 -3 -3 -4 -4 -4 -4 -4 -4 -4 -4 -4 -4 -4 -4 -4 -4 -4 -4 -4 -4 -4 -4 -4 -4 -4 -4 -4 -4 -4 -5 -5 -5 -5 -5 -5 -5 -5 -5
-3 -4 -4 -4 -4 -4 -4 -4 -4 -4 -4 -4 -4 -4 -5 -5 -5 -5 -5 -5 -5 -5 -5 -5 -5 -5 -5 -5 -5 -5 -5 -4 -5 -5 -5 -5 -5 -5 -5 -5 -5 -5 -5 -5
-3 -3 -3 -4 -4 -4 -4 -4 -4 -4 -5 -5 -5 -5 -5 -5 -5 -5 -5 -5 -5 -5 -5 -5 -5 -5 -5 -5 -5 -5 -5 -5 -5 -5 -5 -5 -5 -5 -5 -5 -5 -5 -5 -5
-3 -3 -4 -4 -4 -4 -4 -4 -5 -5 -5 -5 -5 -5 -5 -6 -6 -6 -6 -6 -6 -5 -5 -6 -6 -6 -6 -5 -5 -5 -5 -5 -5 -5 -6 -6 -6 -6 -6 -6 -5 -5 -5 -6
-4 -4 -4 -4 -4 -4 -5 -5 -5 -5 -5 -6 -6 -6 -6 -6 -6 -6 -6 -6 -6 -6 -6 -6 -6 -6 -6 -6 -6 -6 -6 -6 -6 -6 -6 -6 -6 -6 -6 -6 -6 -6 -6 -6
-4 -4 -4 -4 -4 -5 -5 -5 -5 -6 -6 -6 -6 -6 -6 -6 -6 -7 -7 -6 -6 -6 -6 -7 -7 -7 -7 -6 -6 -6 -6 -6 -6 -6 -6 -6 -6 -6 -6 -6 -6 -6 -6 -6
-4 -4 -4 -5 -5 -5 -5 -6 -6 -6 -6 -6 -6 -6 -7 -7 -7 -7 -7 -7 -7 -7 -7 -7 -7 -7 -7 -7 -7 -6 -6 -6 -6 -7 -6 -6 -6 -6 -6 -6 -6 -6 -6 -6
-5 -5 -5 -5 -5 -6 -6 -6 -6 -6 -6 -6 -7 -7 -7 -7 -7 -7 -7 -7 -7 -7 -7 -7 -7 -7 -7 -7 -7 -7 -7 -7 -7 -7 -7 -7 -7 -7 -7 -7 -7 -7 -7 -7
-5 -5 -5 -5 -6 -6 -6 -6 -6 -6 -7 -7 -7 -7 -7 -7 -7 -7 -7 -7 -7 -7 -7 -7 -7 -7 -7 -7 -7 -7 -7 -7 -7 -7 -7 -7 -7 -7 -7 -7 -7 -7 -7 -7
-5 -5 -5 -6 -6 -6 -6 -7 -7 -7 -7 -7 -7 -7 -7 -8 -8 -8 -8 -7 -7 -7 -7 -7 -7 -7 -7 -7 -7 -7 -7 -7 -7 -7 -7 -7 -7 -7 -7 -7 -7 -7 -7 -7
-5 -5 -6 -6 -6 -6 -7 -7 -7 -7 -7 -7 -7 -7 -8 -8 -8 -8 -8 -8 -8 -8 -8 -8 -8 -7 -7 -7 -7 -7 -7 -7 -7 -7 -7 -7 -7 -7 -7 -7 -7 -7 -7 -7
-6 -6 -6 -6 -6 -7 -7 -7 -7 -7 -7 -8 -8 -8 -8 -8 -8 -8 -8 -8 -8 -8 -8 -8 -8 -8 -8 -8 -8 -8 -8 -8 -8 -8 -8 -8 -8 -7 -7 -7 -7 -7 -7 -7
Wind_Speed
6 5 4 6 8 6 7 8 8 9 11 13 9 7 6 5 4 4 4 4 4 4 5 4 4 3 3 2 2 2 2 3 3 3 2 2 2 2 2 2 3 3 3 3
4 4 5 8 10 10 10 8 9 10 12 10 7 5 5 5 4 5 5 5 5 5 5 5 4 4 3 3 3 2 2 3 3 2 2 2 2 2 2 2 2 2 3 3
4 4 5 8 8 8 6 6 7 10 11 7 6 6 6 5 5 5 5 6 6 6 6 6 5 4 4 4 3 2 2 2 2 2 2 2 2 2 2 3 2 2 2 3
2 1 6 7 3 5 6 7 7 7 7 6 7 6 5 5 4 4 5 5 5 5 5 5 5 4 3 2 2 2 2 2 2 2 2 2 2 2 3 2 3 3 3 3
2 4 7 7 4 3 4 6 5 7 8 7 6 4 6 5 4 5 5 5 5 5 5 4 4 4 2 2 1 2 2 2 2 2 2 2 2 3 2 2 2 2 2 3
4 4 6 7 3 2 2 5 6 6 7 6 3 3 6 5 4 4 4 3 3 3 3 3 4 3 2 2 2 3 4 3 3 3 3 3 3 2 1 2 2 2 2 2
5 6 8 6 3 2 3 6 4 3 5 4 4 7 6 5 4 3 3 3 3 3 3 3 3 1 2 2 4 4 3 3 2 2 2 3 2 1 1 1 1 1 1 2
5 6 8 4 3 5 6 4 3 4 4 4 6 7 6 5 4 4 3 3 3 3 4 3 2 1 2 3 4 3 2 2 2 2 1 1 1 1 1 1 1 1 1 2
8 8 5 4 5 5 3 3 5 5 6 5 6 6 6 5 4 4 3 3 3 3 4 3 2 1 2 3 3 2 2 2 2 2 1 1 1 1 1 1 2 2 2 2
5 7 7 6 5 4 4 5 6 6 6 6 7 7 7 5 4 3 3 3 3 2 3 4 4 3 3 3 2 1 2 2 2 1 1 1 1 1 2 2 2 2 3 3
6 7 5 6 6 6 6 6 6 7 6 6 6 7 6 5 4 4 4 4 3 3 4 5 4 4 3 2 1 1 2 2 2 2 1 2 2 2 2 3 3 4 3 3
8 7 5 6 6 5 5 6 7 7 6 5 4 5 5 4 4 4 4 3 3 4 4 4 4 4 3 2 1 1 2 2 2 2 1 2 2 2 2 2 3 4 4 4
8 6 6 7 6 5 5 6 7 6 6 5 4 3 3 4 4 3 4 4 4 4 4 4 4 4 3 2 1 2 2 2 2 2 2 2 2 2 2 3 3 3 4 5
6 5 5 6 6 6 5 5 4 4 4 3 3 3 3 3 3 4 4 4 4 4 4 4 4 4 4 3 2 2 3 3 2 2 2 2 2 2 2 2 2 2 3 3
6 6 7 6 5 5 4 3 3 4 4 4 3 3 3 3 4 5 4 4 3 3 3 3 4 5 4 3 2 2 2 2 2 2 2 2 1 1 2 2 2 2 2 2
5 4 5 5 6 5 3 3 4 5 5 5 4 4 4 4 4 4 4 3 3 4 4 4 4 4 4 3 3 2 2 3 2 2 1 1 1 1 1 1 1 1 1 1
4 5 5 5 6 5 5 5 5 6 5 5 5 4 3 3 3 4 4 3 3 4 4 4 4 4 3 3 3 2 2 2 2 1 1 1 1 2 2 2 2 2 2 2
7 7 6 6 5 6 5 5 5 5 5 5 4 3 3 3 4 4 4 3 3 4 4 4 4 3 3 3 2 2 2 1 1 2 1 1 1 1 1 2 2 2 1 2
4 5 4 5 5 4 5 5 5 4 4 3 3 3 4 4 4 4 3 3 3 4 4 4 5 3 2 3 2 1 1 1 1 1 1 1 1 1 1 1 1 1 1 1
2 3 3 3 3 3 3 4 4 4 3 3 3 3 3 4 3 3 3 3 4 4 4 4 3 2 2 2 1 1 1 1 1 1 1 1 1 1 1 1 1 1 1 1
2 2 2 2 2 2 3 3 3 4 4 3 3 3 4 4 3 2 2 4 4 3 3 4 3 2 2 1 1 1 1 1 1 1 1 1 1 0 0 0 1 0 1 1
2 2 2 2 2 3 3 3 3 3 3 3 2 2 2 3 3 3 3 3 4 5 3 2 2 3 2 1 0 1 1 1 1 1 1 1 1 1 1 0 1 1 1 1
2 2 2 2 3 3 3 3 2 2 2 3 3 2 3 3 2 2 3 2 2 4 3 2 3 3 1 0 0 1 1 1 1 1 1 1 1 1 1 1 1 1 1 1
2 2 2 2 1 2 3 3 3 2 2 2 2 2 2 2 2 2 2 3 4 3 2 3 3 1 0 0 1 0 1 1 1 1 1 1 0 0 1 1 1 1 1 1
2 1 1 1 1 2 3 3 2 2 2 2 2 2 2 2 2 2 1 1 2 2 2 2 1 1 1 1 1 0 0 1 1 1 1 1 1 1 1 1 1 1 1 1
2 2 2 2 2 2 2 1 2 2 1 2 2 2 1 1 1 0 0 1 1 2 1 1 1 1 1 1 0 0 0 0 0 0 1 1 0 1 1 1 1 1 2 2
1 1 1 2 2 2 2 2 2 2 2 1 2 2 1 1 1 1 1 1 1 1 1 1 1 1 1 1 1 1 1 1 1 0 0 0 1 1 1 2 2 2 2 2
Wind_Direction
249 260 251 258 261 247 229 223 226 246 256 272 280 277 278 283 294 312 314 312 306 297 289 284 279 272 259 257 255 246 226 227 234 234 230 224 217 215 215 209 208 206 206 214
280 271 272 279 266 249 249 244 241 255 266 268 276 275 276 279 282 290 295 300 306 306 300 288 277 271 267 264 256 242 232 237 239 225 223 226 218 205 208 215 215 210 215 216
267 295 323 279 251 224 223 224 217 240 255 275 286 282 271 271 269 274 282 291 294 294 295 289 280 268 258 255 249 234 234 245 236 221 222 228 218 202 211 217 216 219 223 225
251 9 247 251 241 208 218 249 237 245 263 267 264 266 272 263 248 268 281 286 292 292 292 294 295 293 273 253 236 236 245 255 249 231 229 228 214 215 220 223 217 219 228 230
187 236 269 282 259 203 210 266 249 246 267 276 275 290 295 278 255 256 266 275 282 285 284 293 298 297 287 276 255 246 256 263 257 236 229 224 222 226 225 209 221 227 230 230
189 211 243 254 266 271 148 272 266 248 262 273 295 288 281 295 293 281 286 292 298 306 304 302 300 300 283 272 261 255 259 259 255 237 223 228 230 232 229 209 217 210 233 239
212 232 261 262 276 96 176 252 280 259 260 257 245 244 268 291 292 279 283 294 303 311 310 299 303 305 276 273 264 266 269 266 258 240 231 231 223 234 220 210 194 202 234 255
188 217 252 246 145 190 231 261 265 267 268 257 258 270 273 276 278 286 297 304 309 311 308 306 313 320 296 289 289 300 300 287 271 256 248 243 204 242 221 191 195 220 240 265
200 219 251 205 209 238 241 259 272 274 277 270 271 274 276 277 274 280 285 294 303 303 309 313 303 271 272 289 303 315 316 302 299 292 269 229 204 218 222 208 214 231 229 245
239 254 257 253 258 268 261 260 270 269 273 272 268 273 276 279 280 283 289 293 300 307 308 306 304 297 270 280 295 299 296 302 308 296 296 280 236 222 217 218 222 228 233 240
249 267 282 265 254 255 265 270 277 282 274 267 267 271 266 269 273 279 291 296 293 283 282 287 295 297 291 289 292 293 291 291 292 270 254 261 251 234 232 231 223 225 232 228
241 239 230 257 260 258 263 273 277 284 291 287 267 264 269 270 271 274 281 288 291 288 287 289 293 294 295 291 265 257 282 284 280 273 264 258 257 286 283 259 263 254 245 236
241 252 244 259 271 266 263 274 279 275 275 284 287 269 267 272 275 277 282 282 279 281 284 289 292 292 296 293 274 249 254 267 269 261 252 248 247 243 275 308 299 280 266 254
237 242 261 258 264 270 272 280 285 288 285 278 277 279 268 269 277 278 280 282 281 281 285 288 287 288 292 291 278 263 260 263 254 244 242 241 244 243 235 246 278 304 293 275
241 234 242 263 270 279 283 290 299 299 301 299 288 275 265 266 274 280 284 287 292 290 290 290 288 292 299 294 283 268 264 259 241 236 238 237 242 245 242 241 255 288 322 314
257 256 252 259 264 270 276 278 278 283 289 288 287 282 274 268 272 282 288 287 286 290 292 290 286 291 297 296 291 281 268 261 248 228 217 217 225 237 241 242 245 251 266 281
242 260 261 264 265 269 265 262 263 271 277 278 279 282 284 283 287 289 291 290 281 279 281 278 281 290 290 283 272 269 265 254 247 239 220 219 227 233 233 227 229 238 248 249
231 243 246 245 254 262 268 268 269 270 269 271 275 273 268 267 273 282 289 297 299 298 290 277 275 281 281 277 268 254 243 239 237 234 230 221 228 234 234 226 227 235 255 253
243 244 249 250 249 249 256 266 272 271 271 272 270 266 265 266 268 276 284 290 288 292 295 290 296 297 285 277 287 250 240 235 241 247 228 213 226 242 244 246 242 238 227 211
265 261 257 261 259 247 258 273 280 282 279 272 270 274 277 276 271 272 275 276 270 269 279 292 297 285 277 271 280 243 236 226 224 232 233 211 217 243 257 266 267 234 213 214
265 264 260 263 276 278 273 276 278 280 284 272 257 262 272 281 278 270 271 285 289 286 289 302 308 287 276 265 258 222 230 221 208 210 209 207 199 202 237 273 285 270 252 254
253 252 259 269 277 291 292 282 272 274 281 282 271 265 272 281 281 280 268 263 275 295 307 291 289 282 276 271 211 206 215 205 197 199 202 200 191 205 236 261 277 287 291 281
253 252 257 266 272 283 296 290 278 269 267 270 265 260 262 267 266 266 286 280 275 295 312 283 284 287 282 89 182 189 195 192 197 207 208 202 204 214 230 254 273 282 284 289
254 259 266 277 298 302 301 301 297 286 278 277 270 263 259 271 285 272 266 282 299 313 315 289 296 297 113 99 131 156 185 191 199 203 187 176 190 220 235 241 259 270 270 280
248 250 250 272 280 277 280 296 311 310 307 307 303 292 273 244 250 277 287 278 305 345 347 339 356 55 76 111 129 151 196 201 184 161 155 167 195 232 254 254 254 261 268 273
245 250 249 248 251 260 270 279 288 294 299 312 320 315 317 323 305 294 298 316 354 18 20 10 15 39 72 114 137 176 191 183 106 126 162 180 212 246 266 273 277 268 269 274
260 260 267 285 286 273 263 259 267 276 273 272 297 304 309 334 8 26 28 49 55 45 37 30 33 43 56 68 72 65 67 84 107 133 172 196 222 254 267 273 274 275 278 279
Height
1502 1500 1500 1499 1497 1497 1499 1497 1497 1489 1486 1478 1477 1476 1474 1473 1472 1470 1469 1468 1467 1465 1464 1463 1462 1461 1460 1459 1459 1460 1459 1459 1460 1460 1460 1460 1461 1461 1462 1462 1463 1463 1463 1464
1502 1498 1498 1495 1492 1493 1492 1491 1489 1486 1481 1476 1475 1474 1473 1471 1470 1469 1468 1466 1465 1463 1462 1461 1459 1458 1457 1456 1456 1457 1456 1456 1456 1456 1457 1457 1457 1457 1458 1458 1459 1459 1459 1459
1503 1500 1497 1495 1487 1487 1486 1484 1484 1482 1477 1473 1473 1472 1471 1469 1468 1467 1466 1465 1463 1461 1460 1459 1457 1456 1454 1454 1454 1453 1453 1453 1453 1453 1453 1453 1453 1454 1454 1454 1455 1455 1455 1455
1504 1504 1505 1485 1480 1479 1480 1479 1478 1476 1473 1472 1470 1468 1467 1467 1466 1464 1463 1462 1460 1459 1457 1456 1455 1453 1452 1451 1450 1450 1450 1449 1449 1449 1449 1449 1449 1450 1450 1450 1450 1450 1450 1451
1505 1504 1494 1482 1478 1478 1479 1477 1474 1473 1470 1469 1467 1466 1464 1464 1463 1462 1461 1459 1458 1456 1455 1453 1452 1450 1449 1448 1447 1446 1446 1446 1446 1445 1445 1446 1446 1446 1446 1446 1446 1446 1446 1447
1502 1500 1495 1479 1474 1473 1476 1476 1470 1469 1467 1466 1466 1468 1463 1461 1460 1459 1457 1456 1454 1453 1451 1450 1448 1447 1446 1444 1443 1442 1442 1442 1442 1442 1442 1442 1442 1442 1442 1442 1442 1442 1443 1443
1499 1498 1486 1475 1473 1473 1479 1474 1468 1466 1465 1464 1463 1463 1460 1458 1457 1455 1454 1453 1451 1450 1448 1446 1445 1444 1442 1441 1440 1439 1439 1438 1438 1438 1438 1438 1439 1439 1439 1438 1438 1439 1439 1440
1495 1494 1484 1470 1471 1473 1470 1466 1465 1463 1462 1461 1459 1457 1456 1455 1453 1451 1450 1449 1447 1446 1444 1443 1442 1440 1439 1438 1437 1436 1436 1435 1435 1435 1435 1435 1435 1435 1435 1435 1435 1435 1435 1436
1481 1476 1468 1466 1465 1465 1464 1463 1462 1461 1459 1458 1456 1454 1452 1451 1449 1448 1447 1445 1444 1443 1441 1440 1439 1438 1436 1435 1434 1433 1433 1432 1432 1432 1432 1432 1432 1432 1432 1432 1432 1432 1432 1432
1474 1467 1464 1463 1462 1462 1462 1460 1459 1457 1456 1454 1452 1450 1449 1447 1446 1444 1443 1442 1441 1439 1438 1437 1436 1435 1434 1433 1432 1430 1430 1429 1429 1429 1429 1429 1429 1429 1429 1429 1429 1428 1428 1428
1468 1464 1461 1459 1459 1458 1458 1457 1455 1453 1452 1450 1448 1446 1445 1443 1442 1441 1440 1439 1438 1437 1435 1434 1433 1433 1431 1430 1429 1428 1427 1426 1426 1426 1426 1426 1426 1426 1426 1426 1426 1426 1426 1426
1462 1458 1458 1455 1454 1455 1454 1452 1451 1449 1447 1445 1444 1442 1441 1440 1439 1438 1437 1436 1435 1434 1432 1431 1430 1429 1429 1428 1426 1425 1424 1424 1423 1423 1423 1422 1422 1422 1422 1423 1423 1423 1423 1423
1454 1453 1453 1451 1451 1450 1449 1448 1446 1445 1443 1441 1440 1439 1438 1436 1435 1435 1434 1433 1431 1430 1429 1428 1427 1426 1426 1425 1424 1423 1422 1421 1420 1420 1420 1419 1419 1419 1418 1419 1419 1419 1419 1419
1450 1450 1448 1447 1447 1446 1445 1444 1443 1441 1439 1438 1437 1435 1434 1433 1432 1431 1430 1429 1428 1427 1426 1425 1424 1423 1423 1422 1421 1420 1419 1419 1418 1417 1417 1416 1416 1416 1416 1416 1415 1415 1416 1416
1446 1445 1444 1443 1443 1442 1441 1440 1438 1437 1435 1434 1433 1432 1430 1429 1428 1427 1426 1425 1424 1423 1422 1421 1421 1420 1419 1419 1418 1417 1417 1416 1415 1415 1414 1414 1414 1414 1414 1414 1413 1413 1413 1414
1441 1440 1440 1439 1438 1437 1437 1435 1434 1433 1432 1430 1429 1428 1427 1426 1425 1424 1423 1422 1421 1419 1419 1418 1417 1417 1416 1415 1415 1414 1414 1413 1413 1412 1412 1412 1411 1411 1411 1411 1411 1411 1411 1411
1437 1435 1435 1434 1434 1433 1432 1432 1431 1430 1428 1427 1426 1424 1423 1422 1421 1420 1419 1418 1417 1416 1415 1415 1414 1413 1413 1412 1412 1411 1411 1411 1410 1410 1409 1409 1409 1409 1409 1409 1409 1409 1409 1409
1432 1431 1431 1430 1430 1429 1428 1428 1427 1426 1425 1423 1422 1421 1420 1419 1417 1416 1415 1414 1414 1413 1412 1412 1411 1410 1410 1409 1409 1409 1408 1408 1408 1407 1407 1407 1407 1407 1407 1407 1407 1407 1407 1407
1428 1427 1427 1426 1426 1425 1425 1424 1423 1422 1421 1420 1419 1418 1416 1415 1414 1413 1412 1411 1410 1409 1409 1409 1408 1407 1407 1407 1407 1406 1406 1406 1405 1405 1405 1405 1405 1405 1405 1405 1405 1405 1405 1405
1424 1424 1423 1423 1423 1422 1421 1420 1420 1419 1418 1417 1415 1414 1413 1412 1411 1410 1409 1408 1407 1406 1406 1405 1405 1404 1404 1404 1404 1403 1403 1403 1403 1403 1403 1403 1403 1403 1403 1403 1403 1403 1403 1403
1422 1421 1420 1420 1419 1419 1418 1417 1416 1415 1414 1413 1412 1411 1410 1409 1408 1407 1405 1404 1404 1403 1403 1402 1402 1402 1401 1401 1401 1401 1401 1401 1401 1401 1401 1401 1401 1401 1401 1401 1401 1401 1401 1401
1419 1418 1418 1417 1417 1416 1415 1414 1413 1412 1411 1410 1409 1408 1407 1406 1405 1404 1403 1402 1401 1400 1400 1400 1399 1399 1399 1399 1399 1399 1399 1399 1399 1399 1400 1400 1400 1400 1400 1399 1399 1399 1399 1399
1417 1416 1416 1415 1414 1413 1412 1411 1410 1409 1408 1407 1406 1405 1404 1403 1402 1401 1400 1399 1399 1398 1398 1397 1397 1397 1397 1397 1397 1397 1397 1398 1398 1398 1398 1398 1398 1398 1398 1398 1398 1398 1397 1397
1415 1414 1414 1413 1412 1411 1410 1409 1408 1407 1406 1405 1404 1403 1402 1400 1399 1399 1398 1397 1397 1396 1395 1395 1395 1395 1395 1395 1396 1396 1396 1396 1396 1396 1396 1396 1396 1396 1396 1396 1396 1396 1396 1395
1413 1412 1411 1410 1409 1408 1407 1406 1405 1404 1403 1402 1401 1400 1400 1399 1398 1397 1396 1395 1395 1394 1394 1394 1394 1394 1394 1394 1394 1394 1394 1395 1395 1395 1395 1395 1395 1395 1395 1395 1394 1394 1394 1393
1410 1410 1409 1408 1407 1406 1405 1404 1403 1402 1401 1400 1399 1398 1397 1397 1396 1395 1394 1394 1394 1393 1393 1393 1393 1393 1393 1393 1393 1393 1393 1393 1393 1394 1393 1393 1393 1393 1393 1393 1393 1392 1392 1392
1408 1407 1407 1406 1405 1404 1403 1402 1401 1400 1399 1398 1397 1396 1395 1395 1394 1394 1393 1392 1392 1392 1392 1392 1392 1392 1392 1392 1392 1392 1392 1392 1392 1392 1392 1392 1392 1392 1392 1391 1391 1391 1390 1390